Weather in Diadema

Brazil     23°41′20″S   46°37′32″W
temp.,
°C
wind,
m/s
gust,
m/s
humid.,
%
clouds,
%
prec.,
mm/h
press.,
hPa
HPBL,
m
20 january, thu
thu2000:00+20ne00832 0.0 101814
03:00+20nne11910 0.0 101612
06:00+20n11940 0.0 101618
09:00+25e11700 0.0 1017490
12:00+30ese11480 0.0 10161519
15:00+31se324287 0.1 10132379
18:00+24sse35835 3.4 1014255
21:00+21se349547 4.6 1016237
21 january, fri
fri2100:00+20ene12959 0.0 1015124
03:00+20se11925 0.0 101433
06:00+19s139511 0.0 101598
09:00+22sse238135 0.0 1016631
12:00+27sse33530 0.0 10151487
15:00+28sse43491 0.0 10131801
18:00+24sse45726 0.0 1013754
21:00+20se369141 0.0 1015351
22 january, sat
sat2200:00+20ese348199 0.0 1015535
03:00+19se238645 0.0 1014147
06:00+20ene248441 0.0 1014300
09:00+23ne127557 0.0 1015612
12:00+30nne03478 0.1 10141800
15:00+29sse545512 0.1 10111296
18:00+24sse447624 0.2 1012623
21:00+21ese238719 0.2 1014255
23 january, sun
sun2300:00+22ne14840 0.0 1014188
03:00+21ene24890 0.0 1012192
06:00+21ene11920 0.0 101446
09:00+26nnw13665 0.0 1014787
12:00+30wnw124778 0.1 10131907
15:00+30ssw134948 0.3 10111267
18:00+26se447336 0.3 1011372
21:00+23ese23867 0.4 1013143
24 january, mon
mon2400:00+22ene13863 0.0 1013139
03:00+22nne11875 0.0 101140
06:00+21se11903 0.0 101325
09:00+26sse01670 0.0 1014601
12:00+32ene01420 0.0 10121923
15:00+31sse54490 0.3 10101680
18:00+26se44740 1.1 1010450
21:00+23ese24854 1.5 1011200